Location: Newark
(45.5000°N, 11.4167°E)
Time: 04:51:13
(UTC+00:00)

Altair - Pass Details

Date: 30 August 2019
Orbit: 1501 x 1683 km, 47.2° (Epoch: 16 September)

Event Time Altitude Azimuth Distance (km) Brightness Sun altitude
Exits shadow 23:42:43 46° 111° (ESE) 2,086 8.0 -35.3°
Drops below altitude 10° 23:50:02 10° 72° (ENE) 3,808 9.8 -35.1°
Sets 23:53:11 0° 67° (ENE) 4,770 10.5 -35.0°
